Left ArrowRight Arrow

40.97296, -117.73568

Hourly Observations for March 3, 2018

Temp ( °F °C ) Dew Point ( °F °C ) Humidity (%) Winds ( mph kmh ) Pressure ( in mb ) Visibility ( mi km ) Precip ( " mm )
12:17 am 00:17 Cloudy with Light Snow 28 -2.2 24 -4.4 85 85 Calm 29.91 1013 1 2 0.01 0.25
12:40 am 00:40 Mostly Cloudy with Light Snow 28 -2 25 -4 86 86 ENE 6 9 29.91 1013 1 1 0.00 0.00
12:56 am 00:56 Mostly Cloudy with Light Snow 28 -2.2 25 -3.9 88 88 Calm 29.81 1010 1 2 0.04 1.02
1:30 am 01:30 Cloudy with Light Snow 28 -2.2 25 -3.9 88 88 Calm 29.94 1014 1 2 0.02 0.51
1:42 am 01:42 Cloudy with Light Snow 28 -2.2 25 -3.9 88 88 Calm 29.94 1014 2 3 0.03 0.76
1:51 am 01:51 Cloudy with Light Snow 28 -2 25 -4 86 86 Calm 29.94 1014 2 3 0.03 0.76
1:56 am 01:56 Cloudy with Light Snow 28 -2.2 24 -4.4 85 85 Calm 29.82 1010 2 3 0.03 0.76
2:28 am 02:28 Cloudy with Light Snow 27 -3 25 -4 93 93 ENE 5 7 29.94 1014 3 5 0.00 0.00
2:50 am 02:50 Cloudy with Light Snow 28 -2 25 -4 86 86 E 7 11 29.91 1013 2 3 0.00 0.00
2:56 am 02:56 Cloudy with Light Snow 28 -2.2 24 -4.4 85 85 ESE 6 9 29.80 1009 1 2 0.01 0.25
3:05 am 03:05 Cloudy with Light Snow 27 -2.8 24 -4.4 89 89 SE 6 9 29.91 1013 2 3 0.00 0.03
3:12 am 03:12 Cloudy with Light Snow 27 -3 25 -4 93 93 ESE 6 9 29.94 1014 3 5 0.00 0.00
3:56 am 03:56 Cloudy 27 -2.8 23 -5 85 85 SSE 13 20 29.82 1010 10 16 0.00 0.03
4:56 am 04:56 Cloudy 26 -3.3 23 -5 88 88 S 10 17 29.85 1011 10 16 0.00 0.00
5:56 am 05:56 Cloudy 27 -2.8 22 -5.6 81 81 S 13 20 29.85 1011 10 16 0.00 0.00
6:56 am 06:56 Cloudy 27 -2.8 22 -5.6 81 81 Calm 29.88 1012 10 16 0.00 0.00
7:56 am 07:56 Cloudy 29 -1.7 24 -4.4 82 82 S 7 11 29.90 1012 10 16 0.00 0.00
8:33 am 08:33 Mostly Cloudy with Light Snow 30 -1.1 25 -3.9 82 82 SSE 8 13 29.97 1015 8 13 0.00 0.03
8:56 am 08:56 Mostly Sunny 30 -1.1 25 -3.9 82 82 S 7 11 29.92 1013 10 16 0.00 0.03
9:56 am 09:56 Partly Cloudy 32 0 27 -2.8 82 82 VRB 3 6 29.92 1013 10 16 0.00 0.00
10:56 am 10:56 Partly Cloudy 33 0.6 24 -4.4 70 70 VRB 3 6 29.93 1014 10 16 0.00 0.00
11:56 am 11:56 Sunny 34 1.1 23 -5 64 64 SW 14 22 29.93 1014 10 16 0.00 0.00
12:56 pm 12:56 Sunny 34 1.1 21 -6.1 59 59 SW 14 22 29.92 1013 10 16 0.00 0.00
1:56 pm 13:56 Sunny 37 2.8 20 -6.7 50 50 SSW 16 26 29.90 1013 10 16 0.00 0.00
2:56 pm 14:56 Partly Cloudy 39 3.9 19 -7.2 45 45 S 9 15 29.89 1012 10 16 0.00 0.00
3:56 pm 15:56 Cloudy 37 2.8 17 -8.3 44 44 S 6 9 29.89 1012 10 16 0.00 0.00
4:56 pm 16:56 Cloudy 36 2.2 20 -6.7 52 52 S 13 20 29.90 1013 10 16 0.00 0.00
5:56 pm 17:56 Mostly Cloudy 32 0 20 -6.7 61 61 SE 7 11 29.91 1013 10 16 0.00 0.00
6:56 pm 18:56 Clear 28 -2.2 19 -7.2 69 69 S 8 13 29.93 1014 10 16 0.00 0.00
7:56 pm 19:56 Clear 28 -2.2 19 -7.2 69 69 S 9 15 29.93 1014 10 16 0.00 0.00
8:56 pm 20:56 Clear 25 -3.9 19 -7.2 78 78 S 8 13 29.96 1015 10 16 0.00 0.00
9:56 pm 21:56 Clear 24 -4.4 17 -8.3 75 75 SSE 8 13 29.97 1015 10 16 0.00 0.00
10:56 pm 22:56 Clear 23 -5 15 -9.4 72 72 S 9 15 29.98 1015 10 16 0.00 0.00
11:56 pm 23:56 Clear 19 -7.2 14 -10 81 81 S 8 13 30.00 1016 10 16 0.00 0.00

Powered by Vaisala Xweather